This demonstration page uses our WeatherBlox Daily Observations layout. Learn more.

Left ArrowRight Arrow

Hourly Observations for October 23, 2018

Temp ( °F °C ) Dew Point ( °F °C ) Humidity (%) Winds ( mph kmh ) Pressure ( in mb ) Visibility ( mi km ) Precip ( " mm )
12:53 am 00:53 Clear 43 6.1 31 -0.6 63 63 ENE 6 9 30.27 1025 10 16 0.00 0.00
1:53 am 01:53 Clear 43 6.1 31 -0.6 63 63 ENE 6 9 30.28 1025 10 16 0.00 0.00
2:53 am 02:53 Clear 39 3.9 31 -0.6 73 73 NE 6 9 30.29 1026 10 16 0.00 0.00
3:53 am 03:53 Clear 40 4.4 31 -0.6 70 70 NE 7 11 30.29 1026 10 16 0.00 0.00
4:53 am 04:53 Clear 40 4.4 30 -1.1 68 68 NE 6 9 30.30 1026 10 16 0.00 0.00
5:53 am 05:53 Clear 37 2.8 30 -1.1 76 76 NE 6 9 30.32 1027 10 16 0.00 0.00
6:53 am 06:53 Clear 37 2.8 30 -1.1 76 76 NNE 3 6 30.34 1027 10 16 0.00 0.00
7:53 am 07:53 Clear 35 1.7 29 -1.7 78 78 NNE 5 7 30.37 1028 10 16 0.00 0.00
8:19 am 08:19 Hazy 34 1.1 29 -1.7 82 82 Calm 30.45 1031 2 3 0.00 0.00
8:35 am 08:35 Hazy 36 2.2 30 -1.1 79 79 NE 6 9 30.42 1030 3 5 0.00 0.00
8:53 am 08:53 Sunny 39 3.9 32 0 76 76 NE 5 7 30.39 1029 7 11 0.00 0.00
9:53 am 09:53 Sunny 46 7.8 33 0.6 61 61 E 8 13 30.40 1029 10 16 0.00 0.00
10:53 am 10:53 Sunny 51 10.6 33 0.6 50 50 SE 12 19 30.39 1029 10 16 0.00 0.00
11:53 am 11:53 Sunny 55 12.8 33 0.6 44 44 ESE 14 22 30.39 1029 10 16 0.00 0.00
12:53 pm 12:53 Sunny 59 15 33 0.6 38 38 E 14 22 30.37 1029 10 16 0.00 0.00
1:53 pm 13:53 Sunny 61 16.1 32 0 34 34 ESE 13 20 30.34 1028 10 16 0.00 0.00
2:53 pm 14:53 Sunny 63 17.2 32 0 31 31 ESE 13 20 30.32 1027 10 16 0.00 0.00
3:53 pm 15:53 Sunny 64 17.8 33 0.6 32 32 SE 12 19 30.30 1026 10 16 0.00 0.00
4:53 pm 16:53 Sunny 63 17.2 32 0 31 31 ESE 10 17 30.29 1026 10 16 0.00 0.00
5:53 pm 17:53 Sunny 61 16.1 32 0 34 34 ESE 12 19 30.29 1026 9 14 0.00 0.00
6:53 pm 18:53 Clear 58 14.4 32 0 38 38 ESE 9 15 30.29 1026 9 14 0.00 0.00
7:53 pm 19:53 Clear 56 13.3 32 0 40 40 ESE 10 17 30.29 1026 10 16 0.00 0.00
8:53 pm 20:53 Clear 54 12.2 30 -1.1 40 40 ESE 13 20 30.29 1026 10 16 0.00 0.00
9:53 pm 21:53 Clear 51 10.6 30 -1.1 44 44 ESE 10 17 30.28 1025 10 16 0.00 0.00
10:53 pm 22:53 Clear 50 10 30 -1.1 46 46 SE 12 19 30.28 1025 10 16 0.00 0.00
11:53 pm 23:53 Clear 49 9.4 31 -0.6 50 50 SE 12 19 30.27 1025 10 16 0.00 0.00

Powered by AerisWeather